KINEIS-2C

Last updated on Mon Sep 21 2026 00:02:54 GMT+0000 (Coordinated Universal Time)

1 62929U 25028B 26263.39157673 .00000816 00000+0 13320-3 0 9991 2 62929 98.1151 317.8577 0002989 345.6466 14.4656 14.73574681 86630
UTC large
Height (km)
Speed (km/s)
/
Latitude / Longitude
Inclination (degrees)
Orbital Period (minutes)
Azimuth
Elevation
Range (km)
Doppler Factor

Next 0 passes for location: London (51.5072 / 0.1276)

No passes found over London.
KINEIS-2C